Regional Weather Roundup
Issued by NWS

Home | Current Version | Previous Version | Graphics & Text | Print | Product List | Glossary On
Versions: 1 2 3 4 5 6 7 8 9 10 11 12 13 14 15 16 17 18 19 20 21 22 23 24 25 26 27
000
ASUS45 KBOU 151910
RWRCO

WEATHER ROUNDUP FOR COLORADO
NATIONAL WEATHER SERVICE DENVER/BOULDER CO
1200 PM MST FRI DEC 15 2017

NOTE: "FAIR" INDICATES FEW OR NO CLOUDS BELOW 12000 FEET WITH NO
SIGNIFICANT WEATHER AND/OR OBSTRUCTIONS TO VISIBILITY.

COZ001>005-013-030-031-152000-
...NORTHWEST COLORADO...

CITY           SKY/WX    TMP DP  RH WIND       PRES   REMARKS
CRAIG          FAIR      33  15  47 CALM      30.24F
HAYDEN         FAIR      30  16  56 SE8       30.25F WCI  22
MEEKER         FAIR      39  14  36 CALM      30.24F
RABBIT EARS PA FAIR      27   1  33 W12G21    30.24F WCI  16
STEAMBOAT SPGS FAIR      29  14  54 CALM      30.24F
WALDEN         FAIR      32   7  34 S13G21    30.21F WCI  22
$$

COZ006>008-011-152000-
...WEST CENTRAL VALLEYS...

CITY           SKY/WX    TMP DP  RH WIND       PRES   REMARKS
GRAND JUNCTION FAIR      38  11  32 S7        30.32F
MONTROSE       FAIR      39  13  34 CALM      30.33F
EAGLE          FAIR      23   9  55 CALM      30.34F
RIFLE          FAIR      33  10  38 CALM      30.31F
DELTA          FAIR      38   9  30 CALM      30.32F
NUCLA          FAIR      36   3  25 CALM      30.35F
$$

COZ017>023-064>068-152000-
...SOUTHWEST COLORADO...

CITY           SKY/WX    TMP DP  RH WIND       PRES   REMARKS
DURANGO        FAIR      39  19  44 SE5       30.27F
CORTEZ         FAIR      43  -4  14 CALM      30.30F
PAGOSA SPRINGS FAIR      37   6  27 CALM      30.27F
TELLURIDE      FAIR      42 -12   9 W5        30.31F
WOLF CREEK PAS FAIR      30  -8  19 NW6       30.37S WCI  24
$$

COZ009-010-012-014-032>034-037-058>063-152000-
...CENTRAL COLORADO...

CITY           SKY/WX    TMP DP  RH WIND       PRES   REMARKS
ASPEN          FAIR      33   8  35 CALM      30.25F
BUENA VISTA    FAIR      37   7  29 S5        30.19F
COPPER MTN     NOT AVBL
BERTHOUD PASS  FAIR      16   3  57 NW16G33   30.24F WCI   0
COTTONWOOD PAS FAIR      43  -4  14 S7        30.21F
GUNNISON       FAIR      25   7  46 S3        30.32F
KREMMLING      FAIR      27  10  50 CALM      30.32F
LEADVILLE      FAIR      35  -9  15 NW13G21   30.23F WCI  26
MONARCH PASS   FAIR      21  -4  33 SW31      30.38S WCI   3
SALIDA         FAIR      46  -2  13 SW12G20   30.26F
SUNLIGHT       FAIR      30  -2  24 SW7       30.33F WCI  23
WILKERSON PASS FAIR      32  -8  18 NW9G16    30.23F WCI  24
$$

COZ069>075-152000-
...SAN LUIS VALLEY/SANGRE DE CRISTO MOUNTAINS...

CITY           SKY/WX    TMP DP  RH WIND       PRES   REMARKS
ALAMOSA        FAIR      32  10  40 CALM      30.27F
DEL NORTE      FAIR      30  10  43 E6        30.28F WCI  24
LA VETA PASS   FAIR      28   7  40 SW26G37     N/A  WCI  13
SAGUACHE       FAIR      32  10  40 S6        30.28F WCI  26
$$

COZ035-036-038>040-152000-
...NORTHERN COLORADO FRONT RANGE...

CITY           SKY/WX    TMP DP  RH WIND       PRES   REMARKS
DENVER INTL AP FAIR      59   5  11 W14       29.97F
DMNS CITY PARK NOT AVBL
AURORA         MOSUNNY   57   3  11 W10       29.98F
FRONT RANGE AP MOSUNNY   59   7  12 SW12      29.99F
ERIE MUNI ARPT FAIR      51  26  37 NE3       30.01F
BOULDER MUN AP FAIR      55  23  28 CALM      29.96F
CENTENNIAL     FAIR      55   9  16 W5        30.00F
BROOMFIELD     MOSUNNY   59   3  10 W24G35    29.99F
FORT COLLINS   FAIR      45  23  42 S3        29.96F
LONGMONT       FAIR      52  18  26 CALM      29.97F
$$

COZ041-046-047-076>085-087-088-152000-
...PIKES PEAK/PALMER DIVIDE AND SOUTHERN FOOTHILLS...

CITY           SKY/WX    TMP DP  RH WIND       PRES   REMARKS
COLO. SPRINGS  FAIR      52  -1  11 SW5       30.05F
A. F. ACADEMY  FAIR      53   2  12 S7        30.03F
SCHRIEVER AFB  FAIR      53   0  11 W6        30.04F
CHEYENNE MTN   FAIR      49  12  22 SE5       30.01F
ELLICOTT         N/A    N/A N/A N/A W7        30.03F
FALCON         FAIR      54  -2  10 W8        30.06F
FORT CARSON    FAIR      53   1  12 S3        30.02F
LIMON          FAIR      55   5  13 W10       30.01F
MONUMENT HILL  FAIR      50  12  22 W8        30.06F
CANON CITY     FAIR      59   7  12 W16G26    30.03F
WALSENBURG     FAIR      55   5  13 W23G31    30.07F
TRINIDAD       FAIR      56   5  13 VRB5      30.07F
$$

COZ042>045-048>051-090-091-152000-
...NORTHEAST COLORADO...

CITY           SKY/WX    TMP DP  RH WIND       PRES   REMARKS
GREELEY ARPT   FAIR      43  18  36 CALM      29.97F
AKRON          FAIR      49  17  28 W16       29.97F
BURLINGTON     FAIR      55   8  15 SW18G26   29.99F
WRAY           FAIR      61   5  11 W7        29.96F
YUMA           FAIR      55   9  15 W8        29.96F
STERLING       FAIR      45  23  42 S12       29.95F
HOLYOKE        FAIR      59  10  14 NW17G28   29.94F
FORT MORGAN    FAIR      44  19  36 SW7       29.98F
$$

COZ086-089-092>099-152000-
...SOUTHEAST COLORADO...

CITY           SKY/WX    TMP DP  RH WIND       PRES   REMARKS
PUEBLO         FAIR      48  22  35 SE5       30.03F
LA JUNTA       FAIR      53  19  26 SW7       30.04F
LAMAR          FAIR      47  26  44 W9        30.04F
SPRINGFIELD      N/A     52   6  15 SW8       30.06F
$$




USA.gov is the U.S. government's official web portal to all federal, state and local government web resources and services.